Temp
63 62 62 62 62 61 61 61 61 61 61 60 60 60 60 60 60 60 60 60 60 60 60 61 62 62 58 60 69 80 80 80 77 77 75 75 73 71 66 67 68 65 69 72 71 70 69
62 62 62 62 61 61 61 61 61 61 60 60 60 60 60 60 60 61 61 60 59 60 61 62 63 63 56 60 81 79 76 75 76 75 73 74 74 77 71 70 68 69 69 70 71 70 69
63 62 62 62 61 60 60 60 61 61 60 60 60 60 60 60 60 59 59 59 59 60 60 62 64 64 60 71 82 78 75 72 72 76 74 77 77 71 79 68 76 70 64 69 69 69 67
62 62 62 61 61 60 60 60 60 60 60 60 60 60 60 60 60 60 58 58 59 60 61 63 65 59 63 80 78 78 74 73 76 74 75 78 76 73 70 74 72 69 65 58 66 69 71
62 62 61 61 61 61 60 60 60 59 59 59 59 59 59 59 59 58 57 57 59 62 63 65 56 56 66 82 78 80 80 78 75 74 76 88 75 68 70 63 58 62 58 58 62 68 68
62 61 61 61 61 60 60 60 59 59 59 59 59 59 58 58 58 57 56 58 62 62 63 67 69 60 71 75 78 82 79 82 76 73 74 72 64 60 58 56 49 56 57 61 59 64 66
62 62 62 61 60 60 60 60 59 59 59 59 59 58 58 58 57 56 53 57 64 62 60 68 69 72 76 78 83 78 82 80 75 70 59 63 59 56 62 67 65 65 63 61 62 66 64
62 62 61 61 60 60 60 59 59 59 59 59 58 58 58 57 57 55 51 64 66 69 62 72 75 74 78 78 74 77 81 70 67 61 61 58 53 65 68 67 66 63 62 60 65 67 63
61 61 61 60 60 60 60 59 59 59 58 58 58 58 57 57 56 54 58 65 72 66 58 70 73 74 75 77 75 75 78 72 65 60 60 55 63 70 68 66 63 59 60 60 63 64 65
61 61 60 60 60 60 59 59 59 58 58 58 58 58 57 54 59 57 64 67 69 69 53 63 67 77 77 76 71 83 81 75 66 64 62 59 67 69 65 65 64 51 69 69 69 59 50
61 61 60 60 60 60 59 59 58 58 58 58 58 57 55 54 51 59 72 64 68 69 45 71 71 82 74 72 72 74 79 74 66 67 63 62 64 64 63 66 68 64 73 69 67 57 52
61 61 61 61 60 60 59 59 58 58 58 58 57 57 56 52 48 58 63 64 69 55 46 66 74 71 69 68 71 73 75 74 74 67 63 66 72 70 69 71 72 74 67 62 57 53 46
61 61 61 60 60 59 59 59 58 58 57 57 56 55 54 59 60 62 63 66 53 46 67 65 65 67 65 65 68 69 67 64 60 52 51 63 66 68 73 63 68 64 55 44 44 44 44
61 60 60 60 59 59 59 59 58 57 57 56 55 53 53 56 55 62 63 59 43 60 60 68 67 64 64 66 66 67 62 59 63 60 52 52 53 64 70 67 62 58 55 47 40 40 45
61 60 60 60 59 59 59 58 58 57 57 55 53 52 52 57 59 60 61 48 51 58 67 66 64 59 57 65 66 64 62 60 65 63 57 49 56 69 71 69 68 58 51 55 45 42 43
61 60 60 60 59 59 59 58 57 57 56 55 49 48 55 62 63 62 58 49 53 65 69 65 56 59 57 61 63 61 60 67 68 69 64 60 52 60 69 70 68 59 62 50 46 40 37
60 60 60 60 59 59 59 58 57 56 55 54 51 54 66 63 63 60 53 55 59 68 72 63 58 58 61 59 63 59 63 68 72 68 68 58 55 57 62 57 55 58 52 48 46 43 39
60 59 59 59 59 59 59 58 57 55 53 52 48 51 67 67 56 50 50 59 61 64 68 67 63 61 60 65 58 61 63 68 75 71 63 57 51 48 53 60 63 58 53 50 46 43 41
59 59 59 59 59 60 59 58 56 54 53 51 43 45 62 66 49 48 56 63 67 64 63 66 65 64 64 62 56 63 66 73 75 69 63 62 49 45 51 55 59 55 56 51 47 44 41
60 59 60 60 60 60 59 58 56 54 54 49 46 47 53 55 52 50 51 56 60 71 67 70 69 66 60 59 60 62 64 73 73 71 68 64 49 50 47 51 53 53 58 54 49 44 42
60 60 60 60 60 60 59 58 56 55 54 49 47 47 49 45 49 49 48 56 60 60 66 66 64 66 58 55 57 59 64 64 70 67 64 61 52 48 52 58 58 58 59 58 53 50 48
59 59 59 60 60 60 59 58 57 55 53 49 47 47 49 46 48 49 48 51 57 60 60 60 59 65 64 58 62 60 63 57 61 61 58 56 51 50 50 60 60 57 61 61 58 55 53
58 59 59 59 59 60 59 58 57 55 53 47 48 49 49 46 46 46 48 52 56 60 62 68 67 64 63 67 70 66 68 65 65 63 57 55 52 48 45 53 56 51 57 57 57 57 56
58 59 59 59 59 60 59 58 58 56 54 49 48 47 45 43 47 50 54 55 56 58 56 66 67 62 70 71 69 67 63 61 65 57 59 53 49 46 45 46 40 54 59 64 60 60 59
58 58 58 59 59 60 59 59 58 57 56 49 49 48 45 41 49 53 54 53 55 58 57 65 70 71 71 67 61 56 53 56 58 59 57 58 50 44 45 42 49 57 59 58 58 56 61
57 57 58 58 59 59 59 58 59 58 57 50 49 50 52 47 47 55 52 53 49 51 56 63 69 69 71 61 58 48 48 53 53 55 52 53 52 51 41 42 42 52 63 65 64 49 60
57 57 57 58 59 59 59 59 59 58 57 51 49 51 50 47 50 49 49 52 56 54 52 57 60 63 65 55 52 51 50 59 51 51 50 48 46 47 43 43 49 58 65 64 50 51 60
57 57 57 57 58 58 59 59 59 58 58 52 50 54 53 50 49 55 59 54 55 54 50 57 58 60 53 50 51 52 52 55 55 56 52 50 47 45 42 41 43 64 63 57 58 55 61
56 56 56 57 57 58 58 58 58 57 57 56 49 53 57 51 49 58 60 62 62 63 53 54 55 56 57 52 52 53 54 54 51 49 56 49 53 50 51 49 57 59 62 60 59 61 61
MSLP
1021.37 1020.99 1020.64 1020.31 1019.90 1019.56 1019.15 1018.62 1018.25 1017.88 1017.53 1017.19 1016.83 1016.43 1016.01 1015.60 1015.27 1014.92 1014.57 1014.26 1013.95 1013.66 1013.40 1013.12 1012.84 1012.54 1012.25 1011.12 1008.60 1007.23 1007.29 1007.78 1008.31 1008.46 1008.43 1008.68 1008.78 1008.88 1009.34 1009.86 1010.21 1010.62 1010.63 1010.50 1011.19 1011.83 1012.04
1021.62 1021.25 1020.83 1020.48 1020.13 1019.68 1019.27 1018.73 1018.35 1017.96 1017.56 1017.16 1016.76 1016.31 1015.84 1015.40 1014.96 1014.57 1014.24 1013.95 1013.66 1013.39 1013.09 1012.88 1012.66 1012.53 1012.04 1009.64 1006.86 1007.21 1007.60 1008.16 1008.28 1008.46 1008.41 1008.42 1008.33 1008.31 1008.83 1009.43 1009.85 1010.35 1010.42 1010.67 1011.23 1011.80 1012.09
1021.88 1021.48 1021.11 1020.68 1020.26 1019.89 1019.51 1018.98 1018.46 1018.02 1017.56 1017.14 1016.66 1016.12 1015.61 1015.13 1014.68 1014.26 1013.88 1013.53 1013.26 1012.96 1012.72 1012.60 1012.49 1012.42 1011.30 1008.13 1006.93 1007.30 1007.74 1007.91 1007.93 1008.10 1008.23 1007.97 1007.93 1008.33 1008.36 1009.39 1009.78 1010.53 1010.78 1011.18 1011.44 1011.69 1012.05
1022.15 1021.72 1021.31 1020.89 1020.41 1020.00 1019.61 1019.08 1018.53 1018.04 1017.50 1017.00 1016.48 1015.92 1015.40 1014.86 1014.31 1013.77 1013.38 1013.04 1012.74 1012.49 1012.36 1012.33 1012.27 1012.13 1009.88 1007.02 1007.01 1007.55 1007.75 1007.79 1007.79 1007.87 1007.79 1007.55 1007.80 1008.37 1008.50 1009.34 1010.07 1010.41 1011.00 1011.38 1011.39 1011.53 1011.59
1022.33 1021.86 1021.43 1021.04 1020.57 1020.10 1019.62 1019.09 1018.52 1017.98 1017.46 1016.89 1016.29 1015.68 1015.09 1014.51 1013.97 1013.31 1012.77 1012.34 1012.01 1011.93 1012.08 1012.10 1012.20 1011.46 1008.66 1006.68 1006.96 1006.62 1006.96 1007.25 1007.49 1007.69 1007.64 1007.45 1007.75 1008.52 1008.97 1009.63 1010.73 1010.98 1011.02 1010.89 1011.14 1011.34 1011.47
1022.49 1021.98 1021.55 1021.13 1020.61 1020.13 1019.65 1019.10 1018.48 1017.85 1017.27 1016.71 1016.11 1015.44 1014.76 1014.15 1013.58 1012.97 1012.37 1011.64 1011.61 1011.79 1012.05 1011.89 1011.43 1010.93 1008.06 1006.70 1006.14 1006.15 1006.34 1006.65 1007.22 1007.45 1007.70 1007.71 1008.53 1009.07 1009.70 1010.05 1010.38 1010.47 1010.75 1010.70 1010.66 1011.03 1011.42
1022.48 1022.00 1021.59 1021.17 1020.66 1020.13 1019.61 1019.06 1018.44 1017.79 1017.09 1016.48 1015.89 1015.21 1014.48 1013.74 1013.19 1012.79 1012.20 1011.86 1011.93 1011.54 1011.13 1010.01 1009.17 1008.48 1007.11 1006.02 1005.61 1005.89 1005.97 1006.59 1006.97 1007.59 1008.26 1008.64 1009.39 1009.40 1008.92 1009.40 1009.36 1009.62 1010.09 1010.33 1010.18 1010.46 1010.95
1022.42 1021.98 1021.56 1021.10 1020.62 1020.11 1019.54 1018.95 1018.38 1017.72 1016.99 1016.27 1015.67 1015.10 1014.33 1013.44 1012.78 1012.36 1012.51 1011.73 1010.68 1010.67 1009.85 1008.14 1007.75 1007.43 1006.46 1005.92 1006.01 1005.75 1005.85 1006.59 1007.16 1007.95 1008.52 1009.31 1009.30 1008.47 1008.88 1009.09 1009.09 1009.36 1009.51 1009.85 1009.83 1010.36 1010.96
1022.39 1021.97 1021.51 1021.00 1020.53 1020.02 1019.42 1018.81 1018.18 1017.57 1016.91 1016.20 1015.51 1014.95 1014.25 1013.16 1012.59 1012.38 1012.10 1011.01 1009.93 1009.92 1009.82 1007.32 1006.57 1006.06 1005.51 1005.88 1005.86 1005.58 1006.00 1006.41 1007.18 1007.94 1008.48 1008.88 1008.08 1007.72 1008.12 1008.08 1008.50 1008.60 1009.00 1009.30 1009.42 1009.97 1010.79
1022.30 1021.86 1021.39 1020.90 1020.41 1019.90 1019.32 1018.71 1018.07 1017.38 1016.66 1015.97 1015.31 1014.82 1014.32 1013.22 1012.62 1012.50 1011.25 1009.92 1009.61 1009.55 1009.36 1007.26 1005.83 1004.68 1004.91 1005.25 1005.53 1005.01 1005.39 1006.17 1006.93 1007.51 1008.28 1008.37 1007.43 1007.37 1007.66 1007.76 1008.05 1008.23 1007.73 1008.41 1008.68 1009.87 1011.12
1022.13 1021.72 1021.24 1020.77 1020.30 1019.79 1019.17 1018.57 1017.93 1017.24 1016.48 1015.76 1015.11 1014.72 1014.41 1014.24 1013.78 1012.54 1010.16 1009.60 1009.31 1009.39 1008.87 1006.20 1004.99 1003.78 1004.34 1005.10 1005.03 1005.08 1005.24 1005.89 1006.52 1006.98 1007.67 1007.41 1006.76 1006.60 1006.72 1006.45 1006.89 1007.12 1007.31 1007.94 1008.73 1010.24 1011.26
1021.99 1021.55 1021.08 1020.60 1020.11 1019.62 1019.05 1018.47 1017.74 1016.94 1016.14 1015.41 1014.73 1014.47 1014.34 1014.11 1013.86 1011.00 1010.08 1009.67 1009.33 1009.89 1007.86 1005.54 1004.47 1004.33 1004.94 1005.02 1005.04 1005.01 1005.40 1005.77 1005.95 1006.63 1006.97 1006.63 1005.67 1005.60 1005.41 1005.37 1005.88 1006.23 1007.98 1009.24 1010.32 1011.39 1012.42
1021.72 1021.33 1020.92 1020.46 1019.96 1019.49 1018.91 1018.32 1017.60 1016.78 1015.74 1014.88 1014.03 1013.51 1014.05 1013.34 1011.62 1010.18 1010.16 1010.15 1010.47 1009.40 1006.94 1005.71 1004.96 1004.82 1005.05 1005.35 1005.32 1005.36 1005.73 1005.95 1006.49 1007.01 1007.19 1006.36 1005.57 1005.02 1004.83 1005.52 1006.21 1007.15 1008.85 1010.68 1012.09 1012.98 1013.02
1021.56 1021.14 1020.73 1020.29 1019.78 1019.34 1018.73 1018.08 1017.40 1016.60 1015.59 1014.32 1013.28 1012.28 1011.78 1011.28 1010.35 1010.36 1010.68 1010.88 1010.58 1008.34 1006.97 1005.66 1005.05 1005.16 1005.41 1005.34 1005.38 1005.67 1006.05 1006.48 1006.39 1006.83 1007.67 1007.17 1006.15 1005.07 1004.72 1005.35 1006.29 1007.53 1008.88 1010.51 1012.20 1013.63 1013.32
1021.27 1020.89 1020.48 1020.05 1019.60 1019.14 1018.55 1017.91 1017.20 1016.44 1015.37 1014.03 1012.66 1011.72 1011.47 1009.58 1010.05 1010.43 1011.03 1011.21 1009.64 1008.22 1006.90 1006.12 1005.34 1005.36 1005.52 1005.21 1005.32 1005.61 1006.06 1006.11 1005.85 1006.24 1007.05 1007.14 1006.15 1005.01 1004.96 1005.19 1006.05 1007.65 1008.85 1009.94 1012.05 1013.70 1013.89
1020.91 1020.54 1020.16 1019.73 1019.34 1018.90 1018.41 1017.85 1017.12 1016.32 1015.21 1013.97 1013.45 1012.39 1010.56 1009.00 1009.55 1009.94 1010.85 1010.61 1009.35 1007.81 1006.76 1006.33 1006.05 1005.65 1005.60 1005.01 1005.26 1005.53 1005.58 1004.83 1004.95 1005.09 1005.47 1006.36 1006.69 1006.01 1005.69 1005.58 1006.48 1007.10 1008.82 1010.54 1012.26 1014.21 1014.78
1020.63 1020.23 1019.85 1019.47 1019.09 1018.66 1018.23 1017.78 1017.18 1016.36 1015.18 1013.78 1013.52 1012.41 1009.65 1009.14 1009.45 1010.16 1010.44 1009.78 1008.61 1007.37 1006.70 1006.62 1006.47 1006.22 1005.34 1004.80 1004.75 1004.88 1004.55 1004.13 1004.16 1004.72 1005.35 1006.42 1006.91 1007.25 1006.84 1007.08 1007.42 1008.13 1009.35 1011.30 1013.04 1014.30 1015.01
1020.38 1019.97 1019.55 1019.18 1018.74 1018.39 1018.09 1017.71 1017.28 1016.64 1015.49 1014.48 1014.69 1013.19 1009.87 1009.77 1010.40 1010.86 1010.40 1009.09 1008.20 1007.33 1006.87 1006.62 1006.22 1006.32 1005.56 1004.86 1004.36 1004.21 1003.91 1003.22 1003.34 1004.06 1005.35 1006.33 1007.79 1008.40 1008.15 1007.68 1007.79 1008.25 1009.33 1010.81 1012.87 1014.63 1014.99
1020.08 1019.73 1019.33 1018.89 1018.49 1018.16 1017.95 1017.70 1017.40 1017.01 1016.61 1016.59 1016.00 1014.23 1010.27 1009.94 1011.06 1011.30 1010.27 1009.04 1007.98 1007.22 1006.85 1006.52 1006.04 1005.80 1005.56 1005.50 1004.60 1003.88 1003.47 1003.04 1003.09 1004.02 1004.92 1006.15 1008.16 1009.05 1008.91 1008.70 1008.12 1008.36 1009.23 1010.62 1011.95 1013.35 1014.45
1019.87 1019.50 1019.10 1018.70 1018.31 1018.03 1017.86 1017.66 1017.46 1017.05 1016.81 1016.87 1016.33 1015.23 1012.67 1011.71 1012.01 1011.81 1011.34 1009.70 1008.19 1006.85 1006.48 1006.09 1005.64 1005.49 1005.29 1005.17 1004.26 1003.78 1003.48 1003.29 1003.54 1003.91 1004.74 1005.52 1008.29 1008.96 1008.95 1008.54 1008.35 1008.56 1009.15 1010.30 1011.38 1013.02 1013.97
1019.72 1019.34 1018.87 1018.46 1018.11 1017.96 1017.80 1017.69 1017.38 1017.05 1016.60 1016.72 1016.60 1016.08 1015.21 1014.19 1013.29 1013.01 1012.01 1010.42 1008.91 1007.85 1006.85 1006.30 1005.59 1005.34 1005.45 1005.47 1004.39 1003.88 1003.59 1003.66 1003.96 1004.54 1005.19 1006.20 1008.23 1008.73 1008.61 1008.24 1008.22 1008.37 1008.77 1009.56 1010.62 1011.42 1012.22
1019.55 1019.20 1018.87 1018.43 1018.14 1017.95 1017.72 1017.59 1017.46 1017.02 1016.64 1016.67 1016.72 1016.42 1015.61 1015.10 1014.16 1013.41 1012.20 1010.74 1009.82 1008.71 1007.68 1006.87 1006.63 1005.76 1005.33 1004.93 1003.90 1003.61 1003.52 1003.86 1004.26 1005.12 1005.97 1007.06 1008.61 1009.05 1009.01 1008.28 1007.99 1008.28 1008.51 1008.96 1009.76 1010.65 1011.13
1019.43 1019.05 1018.67 1018.36 1018.07 1017.82 1017.59 1017.52 1017.49 1017.12 1016.71 1016.97 1016.81 1016.43 1016.09 1015.26 1014.52 1013.72 1012.41 1011.68 1010.50 1009.62 1007.92 1006.92 1006.43 1006.04 1004.62 1003.50 1003.02 1002.78 1002.50 1003.18 1003.92 1004.93 1006.52 1007.63 1008.64 1009.60 1009.82 1009.04 1008.54 1008.55 1008.10 1008.45 1009.23 1009.79 1010.38
1019.31 1018.89 1018.49 1018.22 1017.95 1017.69 1017.49 1017.46 1017.41 1017.31 1017.12 1017.45 1017.36 1017.18 1016.86 1015.79 1014.79 1013.72 1012.63 1012.02 1010.97 1010.10 1009.18 1007.32 1006.45 1005.98 1004.16 1003.24 1002.97 1003.07 1003.81 1003.89 1004.20 1005.19 1005.79 1007.69 1009.09 1009.78 1010.45 1009.84 1009.43 1008.27 1007.79 1007.76 1008.56 1009.38 1009.81
1019.17 1018.75 1018.35 1018.02 1017.74 1017.49 1017.38 1017.42 1017.39 1017.35 1017.22 1017.46 1017.34 1017.35 1016.98 1016.16 1014.94 1013.52 1012.57 1011.95 1011.12 1010.02 1008.82 1007.40 1005.86 1005.24 1004.55 1004.08 1004.24 1004.66 1005.18 1005.22 1005.49 1005.73 1006.35 1006.93 1008.84 1010.38 1010.79 1010.49 1009.78 1008.34 1008.15 1008.12 1008.36 1009.29 1009.58
1019.09 1018.70 1018.29 1017.91 1017.59 1017.34 1017.30 1017.30 1017.24 1017.20 1017.19 1017.29 1017.20 1016.96 1016.78 1016.31 1014.38 1013.60 1012.96 1012.12 1011.65 1010.37 1009.08 1007.32 1005.33 1004.84 1005.21 1005.09 1004.98 1005.84 1005.81 1005.53 1006.00 1006.68 1007.26 1007.64 1008.18 1009.59 1011.05 1010.62 1009.80 1008.27 1007.54 1007.43 1007.91 1009.14 1009.51
1018.96 1018.55 1018.20 1017.81 1017.49 1017.28 1017.26 1017.29 1017.19 1017.07 1017.11 1017.23 1017.07 1016.68 1016.69 1016.13 1014.01 1013.52 1012.84 1012.14 1011.53 1010.91 1010.12 1008.76 1006.94 1006.33 1006.89 1006.68 1006.41 1006.68 1006.34 1005.27 1006.11 1006.64 1007.68 1008.44 1009.34 1010.06 1010.48 1009.99 1008.95 1007.84 1007.28 1007.67 1008.60 1009.31 1009.15
1018.75 1018.43 1018.07 1017.66 1017.32 1017.35 1017.20 1017.17 1017.09 1017.04 1017.08 1017.16 1016.75 1016.26 1016.22 1015.56 1013.80 1012.86 1012.57 1011.90 1011.35 1011.08 1010.57 1009.17 1008.30 1008.06 1008.00 1008.31 1008.17 1007.37 1006.86 1005.71 1005.93 1006.27 1006.71 1007.90 1009.07 1010.00 1010.18 1009.53 1008.46 1007.18 1007.70 1007.97 1008.08 1008.36 1008.75
1018.64 1018.32 1017.97 1017.40 1017.27 1017.22 1017.16 1017.11 1017.05 1017.02 1017.00 1016.92 1016.96 1016.17 1015.91 1015.79 1013.77 1012.45 1011.82 1011.34 1010.89 1010.56 1010.78 1010.03 1008.97 1008.40 1008.60 1009.13 1009.23 1008.06 1006.95 1006.64 1006.59 1007.00 1006.74 1007.59 1007.72 1008.39 1008.74 1008.22 1007.33 1006.74 1006.83 1007.09 1007.32 1007.85 1008.64
Wind_Speed
17 17 17 17 17 17 17 17 17 18 18 17 18 17 17 17 17 16 16 15 14 14 12 10 9 8 3 2 6 4 11 11 7 5 3 4 3 3 3 5 4 1 2 4 7 8 2
17 17 17 16 18 17 17 17 18 17 18 18 18 17 16 17 17 16 16 15 15 14 12 9 7 5 2 2 2 9 10 7 6 5 4 4 5 3 3 5 2 4 3 10 7 6 7
17 16 17 17 16 17 17 18 17 16 16 16 17 17 18 19 19 18 17 16 15 13 11 8 5 3 1 8 3 7 9 7 5 6 5 5 3 3 1 6 3 6 6 4 6 7 6
14 15 17 16 17 17 17 18 17 18 18 19 19 19 19 19 19 19 19 18 15 12 9 7 4 2 6 3 5 6 3 3 4 5 2 4 3 2 3 7 4 3 2 0 5 4 4
15 15 13 14 15 16 15 16 17 17 17 19 18 19 20 20 19 20 19 19 14 7 5 4 2 0 9 6 3 7 7 4 5 4 5 6 2 3 3 6 4 3 3 4 1 8 5
14 13 13 14 14 15 16 17 17 18 18 18 19 20 20 19 18 18 21 14 5 7 3 4 4 2 5 2 3 4 5 5 2 2 2 2 6 4 3 4 6 6 1 2 6 8 5
13 13 13 14 15 15 16 17 18 19 19 19 20 20 21 21 20 15 10 2 4 3 3 7 6 4 5 2 3 3 4 6 4 5 3 4 5 6 11 5 3 4 4 7 3 7 5
12 13 14 14 14 15 17 18 18 19 19 20 20 20 22 23 20 13 2 3 2 4 10 10 7 6 5 2 2 2 4 4 3 4 3 6 5 11 4 6 4 5 3 5 1 6 2
14 14 14 14 15 15 16 17 18 19 20 20 21 20 22 25 22 1 1 4 2 3 1 8 6 5 5 9 6 8 8 4 3 3 4 6 6 4 4 4 3 2 7 4 4 6 2
13 13 14 14 15 15 16 18 18 20 20 21 21 20 19 30 2 4 5 2 6 3 5 8 3 6 4 5 4 6 9 6 2 7 7 6 4 7 5 7 7 5 9 12 6 6 4
13 14 14 14 15 16 17 18 19 20 21 22 21 19 14 5 5 3 4 7 7 4 3 2 4 0 4 8 2 3 4 4 5 5 5 8 3 5 5 9 9 10 14 12 1 5 2
13 14 14 15 15 16 16 18 19 21 22 23 22 19 16 2 1 9 10 9 4 7 6 2 5 5 5 1 2 2 4 1 2 3 3 8 4 5 7 2 4 7 6 8 6 5 2
14 14 14 15 15 15 16 17 19 21 24 25 25 23 7 3 6 2 5 4 6 4 4 3 5 4 4 6 3 5 4 5 5 3 3 6 3 3 3 3 5 8 7 2 3 3 6
14 14 14 14 15 15 16 17 18 20 24 27 27 27 5 7 5 3 3 6 3 4 6 4 3 3 7 7 6 5 3 3 4 5 2 2 8 4 2 7 8 5 9 7 6 4 6
14 14 14 14 14 14 15 16 19 21 24 28 24 3 3 5 10 2 6 3 8 6 3 6 4 5 2 4 5 5 8 5 7 9 8 4 6 3 2 4 7 4 2 3 8 4 3
14 14 14 14 13 13 13 14 18 21 25 27 5 5 5 2 9 5 5 6 5 4 5 4 5 3 6 5 7 8 7 4 6 11 5 6 0 2 4 4 5 3 5 3 5 4 2
13 14 14 14 13 13 12 13 16 20 24 22 3 6 5 4 1 6 5 7 4 5 7 5 1 4 6 2 6 4 8 4 5 4 7 6 3 3 3 3 3 3 3 8 7 3 6
13 13 13 14 13 12 11 11 14 17 23 8 4 4 3 2 4 1 3 6 2 2 3 6 3 7 4 5 2 5 7 7 6 9 5 2 6 3 2 1 1 2 4 6 6 4 1
13 14 13 13 12 10 10 10 11 12 12 4 3 4 5 4 1 2 7 5 5 3 4 4 4 0 3 7 4 4 2 3 8 5 8 7 3 4 8 7 4 2 4 5 6 4 5
14 14 13 13 13 9 8 9 11 10 7 2 2 5 6 5 2 3 5 6 4 3 4 6 8 4 1 5 5 6 2 5 2 5 7 9 4 8 8 8 4 3 4 4 6 4 5
13 13 13 12 10 8 7 8 11 11 11 3 2 2 2 4 4 4 2 4 5 5 4 5 4 4 2 6 5 5 4 2 4 3 5 6 4 3 4 5 3 4 7 8 5 6 6
13 12 13 11 9 9 6 8 10 12 7 3 1 2 4 3 3 4 2 2 5 6 2 3 4 12 9 8 9 8 7 4 6 2 4 3 2 5 2 5 7 3 7 7 4 4 3
13 12 11 11 10 9 3 5 7 10 5 2 2 2 3 3 4 2 3 3 7 8 7 4 8 9 8 10 8 6 8 8 8 10 4 5 7 4 3 3 4 3 5 4 4 4 6
12 12 11 11 10 10 2 3 5 6 5 2 2 1 2 5 2 4 6 10 12 7 6 13 11 4 4 3 4 8 8 7 9 4 6 7 6 3 3 2 2 7 4 4 6 4 4
14 12 12 11 10 9 2 3 4 4 2 1 1 2 2 4 4 10 6 3 8 10 6 9 9 3 13 5 4 5 6 3 1 4 5 6 6 4 5 4 4 3 5 6 6 5 5
13 13 12 12 10 8 3 3 4 3 4 0 3 2 1 1 5 4 4 5 5 4 6 6 8 7 10 3 4 3 6 6 4 4 6 6 6 7 3 5 7 8 4 4 5 3 8
13 13 13 12 9 3 3 4 4 3 4 1 3 2 2 2 6 2 4 2 4 4 3 6 6 9 10 4 4 3 5 7 6 9 7 3 4 6 3 3 6 6 5 1 6 10 8
11 12 13 12 8 5 5 5 5 4 4 1 4 4 2 3 7 8 6 5 2 2 3 4 4 2 4 5 4 3 4 4 4 4 7 6 6 4 3 4 3 7 6 8 8 1 7
11 12 13 11 4 4 5 5 5 5 4 1 3 3 2 3 7 7 13 15 16 15 1 4 3 4 4 3 3 4 3 2 2 3 3 2 7 7 8 8 4 3 6 3 6 7 6
Wind_Direction
24 22 19 16 14 10 7 5 1 358 354 350 347 344 340 336 332 329 327 324 320 316 314 315 309 314 314 331 253 110 110 138 132 148 206 139 153 171 163 163 150 179 196 118 168 145 214
24 20 18 14 11 7 1 4 1 357 354 349 346 341 334 330 329 325 322 317 312 308 303 301 300 308 310 353 156 132 124 132 159 154 183 193 189 195 240 192 242 109 57 112 152 155 144
25 19 14 10 3 0 356 1 357 350 344 343 338 334 331 334 331 325 318 314 307 298 290 280 272 253 2 233 68 135 140 173 180 164 157 223 175 90 201 105 115 119 97 116 141 167 144
10 12 12 4 7 359 356 351 351 347 339 339 336 336 333 329 327 324 316 310 300 287 272 260 211 229 251 238 113 137 200 165 175 210 236 231 186 204 131 127 59 91 75 157 152 189 185
14 8 357 0 8 4 352 345 343 340 339 339 331 329 328 325 325 319 314 309 294 261 212 166 163 167 279 310 154 211 167 178 165 208 259 263 180 125 53 92 54 262 169 229 224 192 145
2 356 353 355 350 342 342 344 343 340 337 335 332 329 326 323 321 321 324 311 114 116 184 199 250 340 278 229 214 183 198 157 173 141 13 87 51 79 57 99 200 185 224 278 216 179 195
347 348 348 350 346 343 340 340 341 339 337 336 334 331 329 326 325 327 345 75 359 5 168 212 213 239 281 251 130 203 179 123 113 65 143 356 79 205 212 167 160 133 167 205 246 178 153
345 348 345 342 341 341 340 338 338 337 335 334 333 332 330 326 326 321 182 95 186 161 303 225 232 254 266 114 262 246 104 113 120 189 123 27 231 236 126 178 220 202 189 217 83 155 145
333 334 334 335 337 337 336 337 336 335 333 331 331 332 332 327 327 103 326 231 289 329 201 298 189 197 201 140 220 212 133 158 159 169 175 163 234 138 182 272 242 254 198 190 194 158 203
325 325 326 329 330 332 332 332 333 332 330 328 327 332 337 328 14 328 282 264 300 177 57 278 248 265 119 117 242 187 177 143 143 209 169 224 255 196 179 243 148 253 181 183 207 101 239
320 322 325 326 327 330 328 330 329 329 328 325 323 328 334 341 299 287 259 314 319 65 359 193 219 85 139 152 181 212 167 62 192 231 105 255 245 173 186 223 167 221 170 184 187 98 60
319 321 323 325 326 327 324 328 327 327 325 323 319 323 332 99 232 244 319 319 54 45 257 282 165 187 108 243 235 78 153 189 195 190 233 237 223 169 205 146 184 127 76 38 42 77 9
315 317 320 322 324 325 324 327 328 326 324 321 316 313 295 221 230 129 308 35 47 159 319 235 210 168 180 193 208 158 189 185 178 91 334 332 251 255 167 131 21 76 72 4 15 19 220
315 316 317 319 319 323 323 325 328 327 324 320 317 313 208 209 246 258 49 52 199 235 253 315 244 113 181 168 222 172 153 243 218 107 93 183 319 192 191 159 181 166 154 150 181 191 242
310 310 312 312 315 320 323 326 329 329 327 322 318 328 255 252 189 85 82 121 212 213 291 341 321 139 243 249 174 136 198 224 206 166 163 166 274 288 52 122 122 185 106 172 104 9 72
305 304 304 305 310 313 321 327 332 333 330 327 326 339 271 88 161 96 89 234 231 237 344 28 35 353 206 237 152 166 189 219 223 181 154 214 242 354 356 67 47 120 149 69 19 134 208
306 305 305 305 307 311 324 333 336 337 333 325 7 0 298 143 161 53 174 228 246 253 48 10 220 274 245 259 176 221 206 241 183 128 151 143 103 286 40 44 177 23 61 55 104 113 151
310 308 309 309 308 311 324 338 341 344 338 38 360 356 246 74 53 6 190 197 289 202 31 268 215 213 333 280 247 206 201 194 171 151 127 86 126 105 188 305 340 187 138 127 118 219 105
311 313 310 307 306 310 327 342 341 348 25 332 7 272 305 102 167 290 305 292 230 256 185 253 280 311 58 279 249 185 218 331 143 117 163 184 21 54 349 358 350 184 134 105 108 91 188
315 314 313 310 308 315 330 342 335 337 351 97 33 349 325 31 23 65 0 284 276 256 247 219 247 278 52 261 255 184 136 196 213 126 117 91 120 152 184 207 154 155 148 128 104 114 175
323 323 319 312 317 328 329 341 334 333 339 122 47 283 188 323 329 337 271 277 282 6 357 306 302 232 296 271 199 185 199 108 30 111 86 102 141 149 245 237 186 183 171 164 154 171 158
326 327 326 328 324 318 316 340 340 335 346 55 65 23 352 271 290 310 296 289 351 337 271 295 301 311 297 214 204 195 144 159 178 57 76 12 149 170 24 350 156 165 190 178 155 135 284
327 327 324 320 317 316 306 344 344 347 3 48 319 327 117 273 311 307 231 2 328 328 290 235 294 303 283 245 220 235 175 163 177 149 131 119 134 103 219 350 89 357 241 148 146 158 147
322 318 318 315 315 311 262 326 348 6 54 131 256 81 76 272 245 240 317 311 297 308 262 287 291 249 295 302 75 65 36 82 135 96 135 129 105 96 169 54 158 236 316 184 126 161 177
329 324 321 317 305 313 270 306 322 345 35 86 272 134 152 276 277 288 281 307 313 289 258 266 258 192 306 293 63 66 355 99 309 170 154 131 123 98 135 161 268 296 179 154 162 229 188
324 327 326 322 302 294 245 283 306 329 347 150 243 198 264 284 253 350 329 288 285 291 310 277 312 5 354 15 87 138 183 171 194 95 39 62 77 115 134 143 188 232 276 149 104 302 167
323 326 329 325 317 302 279 285 293 316 331 157 276 220 139 248 263 159 218 330 297 319 286 288 346 8 4 9 41 175 250 171 162 156 170 72 40 145 142 166 285 234 165 135 95 233 150
318 321 322 319 295 290 297 298 298 310 328 32 266 215 212 251 275 250 260 217 272 228 240 306 0 346 43 340 28 294 238 215 100 153 165 150 137 170 97 97 245 155 77 151 208 307 146
321 319 317 317 306 306 299 299 306 303 300 145 280 305 313 234 260 291 253 240 236 240 150 294 273 153 222 136 219 307 323 28 130 156 39 98 171 177 158 208 245 253 174 183 161 148 180